Flag for France Weather past 2 weeks in Bastia, Corsica, France

Now
70 °F

Passing clouds.


Feels Like: 70 °F
Forecast: 52 / 62 °F
Wind: 12 mph from Northwest

Location: Bastia Airport

Current Time: Apr 1, 2015 at 12:24:19 PM

Latest Report: Apr 1, 2015 at 12:00 PM


Visibility: N/A

Pressure: 29.95 "Hg

Humidity: 27%

Dew point: 34 °F

Location of BastiaLocation

Historic Weather in Bastia — Graph

°F

Bastia temperature yesterday

Maximum temperature yesterday: 70 °F (at 11:04 PM)
Minimum temperature yesterday: 46 °F (at 7:00 AM)
Average temperature yesterday: 60 °F

Past Weeks' High & Low Weather Summary

 TemperatureHumidityPressure
High70 °F (Mar 31, 11:04 PM)100% (Mar 17, 11:00 AM)30.21 "Hg (Mar 17, 11:00 AM)
Low41 °F (Mar 20, 3:00 AM)35% (Mar 31, 11:30 PM)29.27 "Hg (Mar 25, 3:00 PM)
Average55 °F79%29.89 "Hg
* Reported Mar 17 10:00 AM — Apr 1 11:00 AM, Bastia, Weather by CustomWeather, © 2015

Note: Actual official high and low records may vary slightly from our data, if they occured in-between our weather recording intervals... More about our weather records

Advertising

Bastia weather history for previous 24 hours

 ConditionsComfort  
Time TempWeatherWind HumidityBarometerVisibility
11:00 AM
Wed, Apr 1
68 °FSunny.15 mph38%29.95 "Hg10 mi
10:30 AM66 °FPassing clouds.7 mph40%29.92 "HgN/A
10:00 AM66 °FSunny.2 mph40%29.92 "Hg10 mi
9:30 AM63 °FPassing clouds.9 mph45%29.92 "HgN/A
9:00 AM63 °FPassing clouds.8 mph42%29.89 "HgN/A
8:30 AM63 °FPassing clouds.13 mph42%29.89 "HgN/A
8:00 AM61 °FPassing clouds.14 mph42%29.86 "HgN/A
7:30 AM61 °FPassing clouds.15 mph39%29.86 "HgN/A
7:00 AM61 °FPassing clouds.5 mph39%29.83 "HgN/A
6:30 AM61 °FPassing clouds.9 mph39%29.83 "HgN/A
6:00 AM63 °FPassing clouds.10 mph37%29.83 "HgN/A
5:30 AM61 °FClear.16 mph45%29.83 "Hg10 mi
5:00 AM61 °FClear.12 mph42%29.83 "Hg10 mi
4:30 AM61 °FPassing clouds.7 mph42%29.83 "HgN/A
4:00 AM64 °FClear.6 mph37%29.83 "HgN/A
3:30 AM64 °FClear.8 mph40%29.83 "HgN/A
3:00 AM64 °FClear.6 mph40%29.83 "HgN/A
2:30 AM63 °FClear.3 mph42%29.80 "HgN/A
2:00 AM63 °FClear.7 mph45%29.83 "HgN/A
1:30 AM63 °FClear.8 mph45%29.83 "HgN/A
1:04 AM63 °FClear.10 mph49%29.83 "Hg10 mi
12:46 AM63 °FPassing clouds.7 mph49%29.83 "HgN/A
12:00 AM70 °FClear.14 mph35%29.80 "Hg10 mi
11:30 PM
Tue, Mar 31
70 °FPassing clouds.22 mph35%29.77 "HgN/A
11:04 PM70 °FPassing clouds.15 mph38%29.80 "HgN/A
10:30 PM59 °FPassing clouds.7 mph77%29.80 "HgN/A
10:00 PM59 °FClear.8 mph77%29.80 "Hg10 mi
9:30 PM55 °FPassing clouds.5 mph94%29.80 "HgN/A
9:00 PM55 °FPassing clouds.3 mph88%29.80 "HgN/A
8:30 PM55 °FPassing clouds.2 mph82%29.80 "HgN/A
8:00 PM59 °FPassing clouds.2 mph77%29.77 "HgN/A
7:30 PM61 °FPassing clouds.5 mph77%29.77 "HgN/A
7:00 PM63 °FPassing clouds.10 mph73%29.77 "HgN/A
6:30 PM64 °FPassing clouds.8 mph73%29.77 "HgN/A
6:00 PM64 °FPassing clouds.12 mph73%29.77 "HgN/A
5:30 PM64 °FPassing clouds.14 mph73%29.77 "HgN/A
5:00 PM66 °FPassing clouds.10 mph73%29.77 "HgN/A
4:30 PM66 °FPassing clouds.12 mph73%29.80 "HgN/A
4:00 PM68 °FPassing clouds.7 mph69%29.80 "HgN/A
3:30 PM68 °FPassing clouds.7 mph64%29.80 "HgN/A
3:00 PM66 °FPassing clouds.7 mph68%29.83 "HgN/A
2:00 PM66 °FPassing clouds.10 mph78%29.83 "HgN/A
1:30 PM66 °FPassing clouds.9 mph73%29.86 "HgN/A
1:00 PM68 °FPassing clouds.8 mph69%29.86 "HgN/A
12:30 PM66 °FPassing clouds.5 mph73%29.86 "HgN/A
12:00 PM66 °FPassing clouds.6 mph73%29.89 "HgN/A
Weather by CustomWeather, © 2015

See weather overviewHow to use our weather pages